Wind_Speed
10 11 8 8 11 12 14 16 23 21 17 35 36 34 23 21 22 14 20 22 26 32 43 52 50 48 47 46 46 43 42 40 40 40 43 47 49 49 50 53 53 50 47 55
12 10 6 9 14 14 17 20 24 21 28 34 31 26 19 10 18 19 19 22 27 40 47 57 50 49 46 45 43 40 39 38 38 39 40 44 46 47 47 49 53 51 47 44
13 11 7 11 16 16 14 19 22 28 34 26 22 23 17 19 18 18 20 26 33 41 55 54 52 50 48 45 39 36 36 37 36 36 38 41 44 46 43 44 48 48 49 45
6 4 9 14 17 15 17 17 23 26 28 11 18 8 27 12 21 20 22 27 35 48 53 51 50 46 43 42 39 35 36 36 34 34 35 38 41 43 40 39 42 45 45 44
8 12 12 17 10 13 16 19 22 24 18 18 7 6 10 23 23 20 21 35 43 51 51 49 48 45 39 37 35 33 34 35 33 33 33 36 39 39 35 34 37 41 39 42
10 10 13 7 9 12 16 20 17 10 8 2 4 2 21 13 15 18 28 37 50 52 47 49 47 44 37 31 30 30 33 31 28 29 28 29 35 33 32 31 36 36 39 39
12 8 6 7 8 11 16 16 7 4 2 5 6 16 17 18 22 28 29 41 49 52 47 48 45 41 34 29 25 23 25 24 24 23 18 20 25 27 28 28 31 30 30 33
4 4 4 5 10 8 10 7 2 4 3 7 27 9 8 26 29 30 27 42 50 52 48 46 44 39 32 28 23 25 27 23 20 19 20 19 23 24 25 27 26 28 31 32
5 5 8 12 10 8 6 3 5 6 12 4 8 14 30 27 21 22 30 44 48 49 50 45 43 39 31 26 24 22 24 17 16 16 15 17 21 20 25 26 28 28 28 29
7 9 9 7 9 11 7 7 5 3 3 6 8 19 18 25 24 31 35 48 48 48 46 42 40 38 33 25 22 16 20 12 14 14 14 20 21 20 25 26 26 24 26 28
11 9 7 11 7 10 9 9 5 5 6 4 4 12 22 28 24 32 44 46 43 45 40 37 37 36 34 28 20 14 15 13 7 12 15 19 19 24 25 22 23 25 25 26
13 10 11 14 17 14 12 14 12 5 5 11 7 23 25 22 40 43 41 38 36 40 32 31 33 34 32 26 19 16 10 11 10 9 8 8 13 18 21 25 24 24 23 26
8 7 8 7 8 8 11 12 14 17 19 19 5 18 30 42 39 40 33 32 30 35 33 31 30 31 30 27 20 14 15 12 11 10 9 11 12 14 18 21 23 21 22 22
17 18 22 19 23 24 25 28 26 18 14 16 33 43 31 33 37 29 29 28 25 29 31 35 34 30 30 30 25 17 13 15 15 13 12 11 12 13 16 21 21 20 20 20
17 22 26 29 27 29 30 33 27 29 34 25 41 40 33 34 30 29 28 25 22 27 28 29 32 34 30 31 27 19 12 6 9 14 15 13 13 14 15 18 19 20 20 20
18 21 24 32 28 29 29 34 36 34 30 35 33 34 26 26 26 26 24 22 20 26 27 29 30 34 31 33 32 28 16 7 6 7 7 11 13 14 16 18 20 21 20 20
24 22 17 14 17 22 29 11 11 13 18 23 26 25 19 21 23 21 20 19 18 21 23 26 28 28 36 33 34 33 29 16 3 4 7 6 11 11 14 17 18 20 18 16
28 25 17 18 21 3 9 8 13 24 20 19 21 16 17 21 20 19 19 16 14 17 22 24 25 25 28 34 29 31 29 26 12 4 6 7 6 9 8 5 6 9 10 12
27 24 12 7 7 26 24 10 12 12 23 19 10 12 21 23 20 17 18 14 13 15 19 23 23 23 25 26 32 29 29 28 29 27 19 8 10 8 7 7 9 10 7 9
20 22 22 11 6 6 6 11 16 25 26 3 10 19 24 24 19 16 16 12 12 14 18 21 21 20 20 21 22 30 31 27 31 34 33 31 29 26 22 17 13 15 8 4
18 19 29 27 12 16 22 18 21 10 8 6 14 27 25 23 19 15 13 11 10 12 16 18 19 17 17 17 19 20 23 30 33 35 33 30 29 28 26 26 24 22 19 19
15 9 12 15 13 14 8 10 12 14 10 17 31 29 26 26 19 14 10 9 9 10 13 14 15 15 15 15 17 18 20 21 22 26 27 31 32 32 31 30 30 30 31 29
24 24 19 18 25 32 37 38 36 35 37 39 37 32 33 28 18 13 9 5 7 7 11 12 13 14 14 14 15 16 17 18 20 21 23 23 23 23 25 24 24 25 26 24
31 28 34 36 43 43 40 39 39 39 43 38 34 32 24 21 17 12 10 4 6 4 6 8 10 12 13 14 14 15 16 17 17 18 19 20 20 20 20 21 20 20 19 18
46 39 38 47 37 32 26 26 26 19 29 33 22 25 22 19 17 12 11 7 6 4 2 4 7 10 11 12 13 14 15 16 17 18 17 18 18 19 20 19 18 18 17 17
53 47 42 42 29 36 36 33 30 25 25 22 26 23 22 21 18 15 13 10 9 7 4 0 3 5 8 10 11 12 13 14 16 16 17 17 17 18 18 18 18 17 16 15
Wind_Direction
328 319 319 330 341 331 321 316 324 325 323 317 321 313 325 309 300 306 314 313 303 311 313 321 315 311 308 305 303 294 286 281 277 273 266 259 254 254 252 244 240 238 239 238
321 313 317 316 326 322 323 320 326 328 326 314 319 320 325 315 314 319 313 305 305 311 317 319 317 315 310 306 303 296 284 280 277 275 273 265 256 250 250 249 240 237 233 238
309 300 296 308 318 313 321 321 328 319 318 321 313 325 323 309 314 311 297 302 311 315 316 320 323 318 312 305 301 297 288 284 279 276 274 269 260 250 246 245 243 237 235 234
300 292 306 305 312 317 326 326 322 315 313 314 312 285 313 303 313 295 296 313 315 314 322 325 321 316 308 303 298 296 295 288 282 278 276 272 261 250 245 242 240 236 233 231
297 295 299 309 311 318 318 324 325 309 299 303 297 287 299 303 298 290 306 310 314 324 327 325 322 317 311 301 300 300 297 293 287 279 276 272 257 244 242 241 236 233 231 227
294 293 300 294 306 314 323 335 322 307 296 287 289 300 296 303 292 282 303 319 327 330 329 329 325 321 313 303 301 299 294 290 282 282 269 261 254 234 237 236 229 226 226 227
301 292 272 284 305 317 334 346 347 343 337 230 308 309 260 302 303 304 309 324 332 335 334 330 328 324 314 307 306 309 298 283 281 281 263 246 245 233 230 228 224 222 222 224
308 308 242 291 306 305 328 14 91 254 285 280 296 233 292 305 304 300 304 325 332 336 332 332 333 328 317 311 313 319 310 284 274 261 237 224 249 225 222 214 212 217 220 217
296 268 277 290 289 299 316 312 311 254 265 298 262 274 298 292 299 297 308 328 332 335 334 333 334 331 324 314 307 319 320 290 257 261 240 205 215 220 206 207 210 215 217 218
274 286 281 264 286 286 279 287 276 252 344 303 280 287 271 310 302 303 316 330 334 334 334 332 337 334 333 321 309 316 330 311 253 243 247 224 204 216 215 209 211 213 218 221
271 266 272 277 280 286 279 264 236 264 236 202 294 280 298 310 304 316 327 332 332 336 331 336 342 343 338 330 313 304 322 331 289 255 247 235 219 217 219 205 206 215 223 224
273 273 270 278 284 281 274 267 259 226 224 236 268 276 318 315 322 327 332 330 338 337 335 345 349 349 345 340 323 300 292 310 319 295 259 245 234 233 216 209 212 219 228 228
268 256 297 285 274 258 246 277 282 265 262 255 221 270 308 316 328 331 328 334 340 349 352 357 352 358 355 353 342 318 290 271 273 273 267 261 248 232 219 214 218 226 231 235
271 258 257 250 277 283 282 289 285 258 253 265 260 287 323 326 324 324 322 329 334 345 351 1 360 357 3 3 354 334 302 279 261 253 253 249 242 235 222 221 222 226 233 244
264 266 275 280 280 281 284 287 279 260 269 253 296 289 316 323 322 324 324 327 330 341 345 350 353 0 4 10 12 357 325 283 265 254 237 230 234 226 223 222 224 228 236 250
270 273 285 285 285 288 285 287 285 280 275 270 289 295 330 326 325 324 322 325 332 337 346 353 359 6 7 14 18 21 12 327 273 234 234 213 204 212 219 222 227 235 243 254
274 272 285 283 286 292 294 288 246 258 284 292 287 316 323 329 331 329 326 329 338 336 351 355 1 7 11 13 22 26 27 19 1 183 192 212 193 201 212 214 219 229 238 247
266 270 272 281 299 271 277 250 264 287 291 292 304 316 330 331 334 330 333 339 346 350 350 0 3 4 13 19 21 30 33 35 43 86 154 179 203 209 190 198 229 237 248 238
261 256 253 263 256 284 301 294 281 278 302 304 300 321 332 333 333 330 335 341 351 355 353 1 7 2 12 21 32 35 37 45 56 69 73 96 147 175 162 172 174 198 219 208
249 247 237 242 256 246 295 291 288 294 297 211 327 328 331 332 330 329 337 338 351 359 357 1 9 8 14 24 30 36 48 49 58 64 68 73 79 81 83 87 94 90 97 174
229 238 233 237 246 268 305 287 279 262 275 304 324 326 320 325 324 321 334 334 346 359 4 3 10 13 20 23 38 43 48 47 63 70 76 75 77 81 85 92 96 100 106 121
256 243 224 214 226 270 305 288 285 283 268 297 310 314 308 313 315 309 322 327 336 357 8 9 12 17 22 29 36 44 49 57 59 64 64 68 72 74 76 84 93 96 94 91
250 265 264 252 263 280 285 288 285 281 281 289 294 300 298 296 298 296 299 315 320 359 6 16 22 27 28 35 40 48 57 58 62 64 74 77 77 81 87 87 84 83 86 83
274 274 263 277 300 304 297 291 283 277 272 278 285 292 288 282 276 273 269 265 289 330 9 22 32 33 33 37 42 47 54 62 66 71 73 74 73 77 79 81 80 83 85 87
285 278 275 284 308 305 309 307 311 284 265 259 256 276 276 279 252 258 248 233 246 264 336 27 38 48 48 47 48 52 56 61 65 64 62 66 77 80 77 73 71 72 72 70
279 282 284 291 306 297 302 309 300 290 256 248 265 265 271 263 247 234 229 223 226 230 244 334 28 52 61 65 69 70 70 69 70 71 71 71 69 67 67 71 75 77 75 71
Height
3095 3095 3092 3091 3090 3089 3087 3085 3081 3080 3079 3072 3068 3061 3058 3055 3053 3052 3050 3048 3046 3043 3038 3030 3022 3015 3007 3000 2996 2991 2986 2985 2983 2981 2980 2981 2984 2988 2991 2997 3004 3011 3016 3019
3094 3091 3091 3089 3088 3086 3084 3080 3078 3075 3075 3072 3062 3056 3051 3050 3049 3047 3046 3044 3041 3035 3027 3020 3011 3003 2995 2987 2982 2980 2976 2973 2971 2969 2968 2968 2971 2974 2979 2984 2989 2997 3003 3007
3090 3089 3087 3087 3085 3084 3082 3077 3075 3073 3067 3065 3057 3051 3047 3047 3045 3043 3041 3038 3034 3027 3019 3009 2997 2989 2981 2976 2971 2968 2966 2963 2961 2959 2957 2957 2958 2962 2966 2971 2976 2985 2992 2997
3087 3084 3084 3084 3082 3080 3077 3075 3072 3069 3066 3063 3059 3052 3044 3042 3041 3039 3035 3032 3028 3022 3010 2998 2989 2981 2973 2967 2961 2957 2955 2953 2951 2949 2947 2946 2946 2949 2956 2960 2964 2971 2980 2985
3086 3082 3081 3080 3079 3078 3077 3072 3067 3064 3063 3061 3056 3054 3040 3039 3036 3033 3031 3029 3023 3012 3000 2991 2980 2970 2963 2958 2952 2947 2945 2943 2940 2938 2937 2936 2935 2938 2946 2950 2954 2959 2968 2973
3082 3079 3079 3079 3077 3075 3073 3068 3063 3061 3060 3060 3054 3054 3036 3035 3033 3031 3029 3024 3015 3004 2993 2981 2971 2962 2955 2949 2943 2939 2936 2934 2931 2928 2927 2926 2926 2930 2936 2941 2945 2951 2958 2964
3080 3077 3076 3076 3075 3074 3071 3066 3063 3066 3064 3060 3052 3050 3033 3032 3029 3026 3022 3017 3007 2996 2984 2975 2964 2954 2947 2942 2936 2930 2927 2925 2922 2920 2920 2921 2921 2924 2928 2934 2938 2944 2950 2955
3077 3075 3075 3074 3073 3073 3068 3067 3070 3080 3068 3055 3048 3040 3030 3029 3025 3022 3017 3012 3002 2990 2980 2970 2958 2949 2940 2934 2928 2923 2919 2916 2915 2914 2914 2915 2916 2918 2922 2926 2932 2937 2942 2947
3076 3074 3072 3070 3070 3071 3067 3066 3067 3065 3060 3057 3043 3034 3029 3023 3020 3018 3013 3007 2996 2985 2973 2963 2953 2943 2934 2928 2923 2917 2913 2909 2910 2910 2908 2909 2912 2915 2918 2922 2927 2932 2937 2941
3075 3073 3068 3067 3068 3066 3065 3066 3064 3064 3067 3064 3040 3030 3023 3019 3017 3013 3007 2998 2989 2980 2969 2960 2950 2938 2929 2921 2918 2913 2909 2905 2905 2906 2905 2905 2906 2912 2914 2918 2923 2928 2932 2937
3072 3072 3068 3066 3064 3062 3062 3061 3061 3061 3059 3059 3052 3024 3018 3015 3013 3009 3002 2992 2984 2975 2967 2957 2947 2935 2924 2917 2912 2908 2907 2904 2902 2901 2902 2904 2905 2908 2911 2914 2919 2924 2928 2931
3069 3066 3063 3062 3059 3058 3057 3056 3057 3056 3054 3050 3047 3018 3013 3011 3008 3003 2997 2989 2982 2974 2964 2956 2945 2933 2922 2913 2908 2906 2902 2901 2900 2899 2899 2901 2904 2907 2909 2912 2916 2920 2924 2927
3065 3062 3060 3056 3057 3055 3053 3051 3051 3050 3048 3041 3044 3015 3009 3008 3004 2998 2991 2987 2981 2974 2964 2956 2945 2933 2922 2912 2905 2901 2899 2897 2897 2898 2898 2900 2902 2903 2906 2910 2913 2916 2920 2923
3060 3058 3056 3053 3051 3050 3049 3045 3044 3044 3041 3032 3020 3011 3005 3006 3001 2997 2990 2985 2979 2971 2962 2955 2945 2935 2924 2914 2906 2899 2895 2893 2893 2893 2895 2896 2898 2900 2902 2906 2910 2913 2916 2918
3055 3051 3049 3046 3045 3043 3039 3035 3034 3031 3027 3026 3009 3008 3002 3001 2997 2992 2986 2982 2977 2970 2963 2955 2946 2936 2926 2916 2907 2898 2892 2889 2889 2890 2891 2892 2895 2897 2900 2903 2907 2910 2912 2914
3049 3045 3041 3037 3038 3035 3028 3024 3021 3020 3018 3013 3007 3002 3003 2998 2993 2988 2983 2979 2975 2968 2962 2954 2946 2938 2928 2918 2907 2898 2892 2889 2887 2887 2888 2890 2891 2894 2897 2900 2904 2907 2909 2911
3045 3042 3039 3030 3031 3029 3020 3011 3011 3011 3010 3008 3004 3001 2997 2994 2990 2985 2981 2977 2973 2967 2962 2955 2947 2940 2932 2921 2911 2902 2894 2889 2887 2885 2886 2888 2890 2892 2894 2897 2900 2903 2905 2907
3036 3038 3038 3029 3029 3025 3008 3007 3007 3005 3003 3001 2999 2997 2994 2991 2988 2982 2979 2975 2971 2966 2961 2955 2948 2941 2937 2928 2918 2909 2902 2895 2889 2886 2886 2888 2890 2891 2893 2896 2899 2902 2903 2905
3030 3033 3034 3030 3024 3011 3004 3001 3002 3000 2998 2997 2995 2994 2991 2988 2985 2981 2977 2974 2970 2966 2961 2956 2952 2943 2939 2933 2925 2917 2910 2903 2898 2891 2889 2889 2891 2893 2896 2898 2899 2901 2902 2903
3025 3026 3029 3026 3025 3016 3001 2999 2997 2995 2990 2991 2992 2990 2987 2985 2982 2979 2975 2973 2970 2966 2961 2957 2953 2947 2942 2938 2932 2926 2920 2913 2906 2900 2897 2897 2897 2897 2898 2899 2900 2901 2902 2905
3019 3018 3017 3020 3018 3001 2995 2994 2993 2994 2992 2987 2987 2986 2984 2982 2980 2977 2974 2972 2970 2967 2962 2958 2954 2949 2945 2941 2937 2932 2928 2923 2917 2913 2910 2908 2906 2905 2905 2907 2908 2909 2911 2912
3013 3013 3010 3012 3012 2998 2990 2989 2990 2988 2985 2983 2981 2982 2980 2978 2976 2974 2973 2971 2969 2966 2963 2960 2955 2952 2948 2944 2941 2938 2933 2931 2926 2924 2921 2920 2919 2917 2916 2917 2916 2917 2917 2918
3006 3004 3003 3002 2988 2986 2985 2983 2983 2981 2980 2978 2976 2975 2974 2973 2972 2971 2971 2969 2968 2966 2964 2961 2957 2954 2950 2947 2943 2941 2939 2936 2934 2931 2931 2929 2926 2926 2926 2926 2925 2925 2925 2926
2995 2996 2991 2987 2976 2976 2976 2972 2969 2969 2968 2970 2969 2968 2966 2966 2967 2967 2968 2967 2967 2966 2964 2962 2959 2956 2952 2949 2947 2944 2942 2940 2938 2937 2936 2935 2934 2933 2932 2932 2932 2931 2932 2934
2986 2985 2982 2973 2967 2967 2966 2962 2959 2955 2955 2955 2958 2960 2960 2960 2961 2963 2964 2964 2965 2964 2963 2962 2960 2959 2956 2953 2950 2947 2945 2944 2942 2940 2938 2938 2940 2940 2938 2937 2936 2936 2937 2937
2968 2970 2971 2964 2963 2957 2955 2955 2952 2949 2948 2948 2950 2950 2952 2952 2954 2957 2960 2961 2962 2962 2962 2962 2961 2959 2958 2957 2955 2952 2950 2948 2947 2946 2945 2944 2942 2941 2940 2941 2942 2943 2943 2942